Location: Carrières
(48.9495°N, 2.0407°E)
Time: 05:05:45
(UTC+00:00)

Vanguard 1 Rocket - Pass Details

Date: 14 April 2024
Orbit: 650 x 4220 km, 34.3° (Epoch: 27 May)

Event Time Altitude Azimuth Distance (km) Brightness Sun altitude
Exits shadow 03:29:10 15° 223° (SW) 6,131 11.0 -14.6°
Maximum altitude 03:30:23 15° 220° (SW) 6,208 11.0 -14.5°
Drops below altitude 10° 03:41:16 10° 192° (SSW) 7,232 11.6 -13.0°
Sets 03:51:38 0° 175° (S) 8,453 12.1 -11.5°
